TimePST,TemperatureF,Dew PointF,Humidity,Sea Level PressureIn,VisibilityMPH,Wind Direction,Wind SpeedMPH,Gust SpeedMPH,PrecipitationIn,Events,Conditions,WindDirDegrees,DateUTC
12:53 AM,55.0,50.0,83,30.16,10.0,Calm,Calm,-,N/A,,Clear,0,2012-11-20 08:53:00
1:53 AM,54.0,50.0,86,30.16,10.0,Calm,Calm,-,N/A,,Clear,0,2012-11-20 09:53:00
2:53 AM,54.0,50.0,86,30.14,10.0,Calm,Calm,-,N/A,,Clear,0,2012-11-20 10:53:00
3:53 AM,51.1,48.0,89,30.14,10.0,Calm,Calm,-,N/A,,Clear,0,2012-11-20 11:53:00
4:53 AM,51.1,48.0,89,30.14,8.0,Calm,Calm,-,N/A,,Clear,0,2012-11-20 12:53:00
5:53 AM,52.0,48.0,86,30.14,9.0,Calm,Calm,-,N/A,,Clear,0,2012-11-20 13:53:00
6:53 AM,51.1,48.0,89,30.15,7.0,Calm,Calm,-,N/A,,Clear,0,2012-11-20 14:53:00
7:53 AM,55.9,52.0,87,30.16,6.0,Calm,Calm,-,N/A,,Clear,0,2012-11-20 15:53:00
8:53 AM,59.0,53.1,81,30.16,6.0,Calm,Calm,-,N/A,,Haze,0,2012-11-20 16:53:00
9:53 AM,64.9,48.9,56,30.15,9.0,Calm,Calm,-,N/A,,Clear,0,2012-11-20 17:53:00
10:53 AM,69.1,48.9,49,30.12,10.0,NNW,3.5,-,N/A,,Clear,330,2012-11-20 18:53:00
11:53 AM,71.1,51.1,49,30.09,10.0,WNW,6.9,-,N/A,,Clear,300,2012-11-20 19:53:00
12:53 PM,72.0,51.1,48,30.06,10.0,WNW,5.8,-,N/A,,Clear,290,2012-11-20 20:53:00
1:53 PM,72.0,48.9,44,30.04,10.0,WNW,8.1,-,N/A,,Clear,290,2012-11-20 21:53:00
2:53 PM,69.1,48.9,49,30.04,10.0,WNW,13.8,-,N/A,,Clear,290,2012-11-20 22:53:00
3:53 PM,66.9,51.1,57,30.04,10.0,NW,8.1,-,N/A,,Scattered Clouds,310,2012-11-20 23:53:00
4:53 PM,64.0,48.9,58,30.04,10.0,WNW,6.9,-,N/A,,Clear,300,2012-11-21 00:53:00
5:53 PM,62.1,52.0,70,30.05,10.0,NW,5.8,-,N/A,,Clear,320,2012-11-21 01:53:00
6:53 PM,62.1,54.0,75,30.06,10.0,WNW,5.8,-,N/A,,Clear,300,2012-11-21 02:53:00
7:53 PM,62.1,54.0,75,30.06,10.0,Calm,Calm,-,N/A,,Clear,0,2012-11-21 03:53:00
8:53 PM,59.0,53.1,81,30.07,10.0,East,4.6,-,N/A,,Clear,90,2012-11-21 04:53:00
9:53 PM,57.9,53.1,84,30.07,10.0,Calm,Calm,-,N/A,,Clear,0,2012-11-21 05:53:00
10:53 PM,57.9,53.1,84,30.07,10.0,Calm,Calm,-,N/A,,Clear,0,2012-11-21 06:53:00
11:53 PM,55.9,52.0,87,30.06,10.0,Calm,Calm,-,N/A,,Clear,0,2012-11-21 07:53:00